Time,TemperatureF,DewpointF,PressureIn,WindDirection,WindDirectionDegrees,WindSpeedMPH,WindSpeedGustMPH,Humidity,HourlyPrecipIn,Conditions,Clouds,dailyrainin,SoftwareType,DateUTC
2013-11-15 00:09:00,41.9,33.1,30.05,SW,225,5.3,5.3,71,0.00,,,0.00,WUHU21636XXSP,2013-11-15 06:09:00,
2013-11-15 00:19:00,41.7,32.9,30.04,WSW,247,0.0,5.3,71,0.00,,,0.00,WUHU21636XXSP,2013-11-15 06:19:00,
2013-11-15 00:29:00,41.7,32.9,30.04,WSW,247,0.0,0.0,71,0.00,,,0.00,WUHU21636XXSP,2013-11-15 06:29:00,
2013-11-15 00:39:00,41.7,32.9,30.04,WSW,247,0.0,0.0,71,0.00,,,0.00,WUHU21636XXSP,2013-11-15 06:39:00,
2013-11-15 00:49:00,41.7,32.9,30.04,WSW,247,0.0,0.0,71,0.00,,,0.00,WUHU21636XXSP,2013-11-15 06:49:00,
2013-11-15 00:59:00,41.7,32.9,30.03,WSW,247,0.0,0.0,71,0.00,,,0.00,WUHU21636XXSP,2013-11-15 06:59:00,
2013-11-15 01:09:00,41.7,32.9,30.03,WSW,247,0.0,0.0,71,0.00,,,0.00,WUHU21636XXSP,2013-11-15 07:09:00,
2013-11-15 01:19:00,41.5,32.7,30.02,WSW,247,0.0,0.0,71,0.00,,,0.00,WUHU21636XXSP,2013-11-15 07:19:00,
2013-11-15 01:29:00,41.5,32.7,30.02,WSW,247,0.0,0.0,71,0.00,,,0.00,WUHU21636XXSP,2013-11-15 07:29:00,
2013-11-15 01:39:00,41.4,32.9,30.02,WSW,247,0.0,0.0,72,0.00,,,0.00,WUHU21636XXSP,2013-11-15 07:39:00,
2013-11-15 01:49:00,41.2,32.7,30.02,WSW,247,0.0,0.0,72,0.00,,,0.00,WUHU21636XXSP,2013-11-15 07:49:00,
2013-11-15 01:59:00,40.8,32.4,30.02,WSW,247,0.0,0.0,72,0.00,,,0.00,WUHU21636XXSP,2013-11-15 07:59:00,
2013-11-15 02:09:00,40.8,32.4,30.01,WSW,247,0.0,0.0,73,0.00,,,0.00,WUHU21636XXSP,2013-11-15 08:09:00,
2013-11-15 02:19:00,40.8,32.4,30.01,WSW,247,0.0,0.0,72,0.00,,,0.00,WUHU21636XXSP,2013-11-15 08:19:00,
2013-11-15 02:29:00,40.6,32.5,30.01,WSW,247,0.0,0.0,73,0.00,,,0.00,WUHU21636XXSP,2013-11-15 08:29:00,
2013-11-15 02:39:00,40.6,32.5,30.01,WSW,247,0.0,0.0,73,0.00,,,0.00,WUHU21636XXSP,2013-11-15 08:39:00,
2013-11-15 02:49:00,40.1,32.4,30.01,WSW,247,0.0,0.0,74,0.00,,,0.00,WUHU21636XXSP,2013-11-15 08:49:00,
2013-11-15 02:59:00,39.7,32.0,30.00,WSW,247,0.0,0.0,74,0.00,,,0.00,WUHU21636XXSP,2013-11-15 08:59:00,
2013-11-15 03:09:00,39.7,32.0,30.00,SW,225,0.0,2.0,75,0.00,,,0.00,WUHU21636XXSP,2013-11-15 09:09:00,
2013-11-15 03:19:00,39.4,32.4,30.00,SW,225,3.8,3.8,76,0.00,,,0.00,WUHU21636XXSP,2013-11-15 09:19:00,
2013-11-15 03:29:00,39.0,32.4,30.01,SW,225,3.1,3.8,77,0.00,,,0.00,WUHU21636XXSP,2013-11-15 09:29:00,
2013-11-15 03:39:00,38.8,32.2,30.00,SW,225,3.1,4.6,78,0.00,,,0.00,WUHU21636XXSP,2013-11-15 09:39:00,
2013-11-15 03:49:00,38.8,32.2,29.99,SW,225,3.5,3.5,78,0.00,,,0.00,WUHU21636XXSP,2013-11-15 09:49:00,
2013-11-15 03:59:00,38.8,32.9,29.99,SSW,202,4.2,5.1,79,0.00,,,0.00,WUHU21636XXSP,2013-11-15 09:59:00,
2013-11-15 04:09:00,38.8,32.9,29.99,SW,225,3.5,6.4,79,0.00,,,0.00,WUHU21636XXSP,2013-11-15 10:09:00,
2013-11-15 04:19:00,38.8,32.9,29.99,SW,225,0.2,3.8,79,0.00,,,0.00,WUHU21636XXSP,2013-11-15 10:19:00,
2013-11-15 04:29:00,38.8,32.9,29.99,SW,225,0.4,0.6,79,0.00,,,0.00,WUHU21636XXSP,2013-11-15 10:29:00,
2013-11-15 04:39:00,38.8,32.9,29.98,SW,225,1.1,1.7,78,0.00,,,0.00,WUHU21636XXSP,2013-11-15 10:39:00,
2013-11-15 04:49:00,38.8,32.9,29.97,SSW,202,4.0,5.8,79,0.00,,,0.00,WUHU21636XXSP,2013-11-15 10:49:00,
2013-11-15 04:59:00,38.8,32.9,29.98,WSW,247,1.1,5.1,79,0.00,,,0.00,WUHU21636XXSP,2013-11-15 10:59:00,
2013-11-15 05:09:00,38.7,32.7,29.97,SSW,202,4.4,7.1,79,0.00,,,0.00,WUHU21636XXSP,2013-11-15 11:09:00,
2013-11-15 05:19:00,38.7,32.7,29.97,SSW,202,3.8,4.9,79,0.00,,,0.00,WUHU21636XXSP,2013-11-15 11:19:00,
2013-11-15 05:29:00,38.5,32.2,29.97,SSW,202,0.0,3.8,78,0.00,,,0.00,WUHU21636XXSP,2013-11-15 11:29:00,
2013-11-15 05:39:00,38.3,32.4,29.96,SW,225,0.0,4.9,79,0.00,,,0.00,WUHU21636XXSP,2013-11-15 11:39:00,
2013-11-15 05:49:00,38.3,32.4,29.96,SW,225,0.0,3.3,78,0.00,,,0.00,WUHU21636XXSP,2013-11-15 11:49:00,
2013-11-15 05:59:00,38.3,32.4,29.96,SW,225,0.0,0.0,78,0.00,,,0.00,WUHU21636XXSP,2013-11-15 11:59:00,
2013-11-15 06:09:00,38.5,31.8,29.95,SW,225,0.0,3.1,77,0.00,,,0.00,WUHU21636XXSP,2013-11-15 12:09:00,
2013-11-15 06:19:00,38.3,31.6,29.94,SSW,202,2.0,2.0,77,0.00,,,0.00,WUHU21636XXSP,2013-11-15 12:19:00,
2013-11-15 06:29:00,38.3,31.6,29.94,SSW,202,2.2,2.2,77,0.00,,,0.00,WUHU21636XXSP,2013-11-15 12:29:00,
2013-11-15 06:39:00,38.1,31.5,29.93,SSW,202,0.0,3.3,77,0.00,,,0.00,WUHU21636XXSP,2013-11-15 12:39:00,
2013-11-15 06:49:00,38.1,31.5,29.93,SSW,202,2.2,4.4,77,0.00,,,0.00,WUHU21636XXSP,2013-11-15 12:49:00,
2013-11-15 06:59:00,37.9,31.3,29.93,SSW,202,0.0,2.2,78,0.00,,,0.00,WUHU21636XXSP,2013-11-15 12:59:00,
2013-11-15 07:09:00,37.9,31.6,29.93,SSW,202,0.0,4.2,78,0.00,,,0.00,WUHU21636XXSP,2013-11-15 13:09:00,
2013-11-15 07:19:00,38.1,32.2,29.93,SW,225,0.0,4.6,78,0.00,,,0.00,WUHU21636XXSP,2013-11-15 13:19:00,
2013-11-15 07:29:00,38.1,31.8,29.94,SW,225,1.5,7.6,78,0.00,,,0.00,WUHU21636XXSP,2013-11-15 13:29:00,
2013-11-15 07:39:00,38.5,32.2,29.94,SW,225,3.1,4.0,78,0.00,,,0.00,WUHU21636XXSP,2013-11-15 13:39:00,
2013-11-15 07:49:00,38.5,32.2,29.93,SW,225,5.1,11.4,78,0.00,,,0.00,WUHU21636XXSP,2013-11-15 13:49:00,
2013-11-15 07:59:00,38.8,32.2,29.93,SSW,202,2.9,7.8,77,0.00,,,0.00,WUHU21636XXSP,2013-11-15 13:59:00,
2013-11-15 08:09:00,38.5,32.2,29.94,SW,225,5.8,6.7,78,0.00,,,0.00,WUHU21636XXSP,2013-11-15 14:09:00,
2013-11-15 08:19:00,38.7,32.4,29.94,SW,225,2.6,6.7,78,0.00,,,0.00,WUHU21636XXSP,2013-11-15 14:19:00,
2013-11-15 08:29:00,38.5,32.2,29.94,SW,225,1.3,6.2,78,0.00,,,0.00,WUHU21636XXSP,2013-11-15 14:29:00,
2013-11-15 08:39:00,38.8,32.5,29.94,SW,225,3.8,7.3,78,0.00,,,0.00,WUHU21636XXSP,2013-11-15 14:39:00,
2013-11-15 08:49:00,39.0,33.1,29.93,SW,225,3.5,5.1,79,0.00,,,0.00,WUHU21636XXSP,2013-11-15 14:49:00,
2013-11-15 08:59:00,39.6,33.3,29.93,SSW,202,1.3,4.6,78,0.00,,,0.00,WUHU21636XXSP,2013-11-15 14:59:00,
2013-11-15 09:09:00,39.7,33.3,29.93,SSW,202,0.8,2.0,78,0.00,,,0.00,WUHU21636XXSP,2013-11-15 15:09:00,
2013-11-15 09:19:00,40.3,34.2,29.92,SSW,202,0.0,0.8,79,0.00,,,0.00,WUHU21636XXSP,2013-11-15 15:19:00,
2013-11-15 09:29:00,41.2,35.4,29.92,SSW,202,2.9,2.9,80,0.00,,,0.00,WUHU21636XXSP,2013-11-15 15:29:00,
2013-11-15 09:39:00,43.3,36.9,29.92,SW,225,0.8,13.4,78,0.00,,,0.00,WUHU21636XXSP,2013-11-15 15:39:00,
2013-11-15 09:49:00,44.8,37.6,29.92,SW,225,2.6,11.4,76,0.00,,,0.00,WUHU21636XXSP,2013-11-15 15:49:00,
2013-11-15 09:59:00,46.2,38.3,29.91,SSW,202,8.9,13.4,74,0.00,,,0.00,WUHU21636XXSP,2013-11-15 15:59:00,
2013-11-15 10:09:00,47.5,38.5,29.91,SW,225,7.6,16.1,71,0.00,,,0.00,WUHU21636XXSP,2013-11-15 16:09:00,
2013-11-15 10:19:00,48.6,39.2,29.90,SSW,202,9.1,20.1,70,0.00,,,0.00,WUHU21636XXSP,2013-11-15 16:19:00,
2013-11-15 10:29:00,49.1,38.8,29.89,WSW,247,9.3,20.1,68,0.00,,,0.00,WUHU21636XXSP,2013-11-15 16:29:00,
2013-11-15 10:39:00,50.0,39.0,29.88,SW,225,9.3,21.4,66,0.00,,,0.00,WUHU21636XXSP,2013-11-15 16:39:00,
2013-11-15 10:49:00,51.1,38.3,29.88,SSW,202,14.7,29.5,62,0.00,,,0.00,WUHU21636XXSP,2013-11-15 16:49:00,
2013-11-15 10:59:00,51.6,38.5,29.88,SSW,202,12.9,24.8,61,0.00,,,0.00,WUHU21636XXSP,2013-11-15 16:59:00,
2013-11-15 11:09:00,52.5,37.9,29.88,SSW,202,14.5,22.8,58,0.00,,,0.00,WUHU21636XXSP,2013-11-15 17:09:00,
2013-11-15 11:19:00,53.2,38.7,29.88,SW,225,10.9,26.6,58,0.00,,,0.00,WUHU21636XXSP,2013-11-15 17:19:00,
2013-11-15 11:29:00,54.0,38.5,29.89,SSW,202,11.8,21.2,56,0.00,,,0.00,WUHU21636XXSP,2013-11-15 17:29:00,
2013-11-15 11:39:00,54.5,38.5,29.88,SSW,202,10.2,21.6,55,0.00,,,0.00,WUHU21636XXSP,2013-11-15 17:39:00,
2013-11-15 11:49:00,55.2,37.8,29.87,SSW,202,16.7,21.4,52,0.00,,,0.00,WUHU21636XXSP,2013-11-15 17:49:00,
2013-11-15 11:59:00,55.6,38.5,29.86,SSW,202,9.3,27.7,53,0.00,,,0.00,WUHU21636XXSP,2013-11-15 17:59:00,
2013-11-15 12:09:00,56.1,38.7,29.85,SSW,202,16.3,25.9,52,0.00,,,0.00,WUHU21636XXSP,2013-11-15 18:09:00,
2013-11-15 12:19:00,56.8,38.8,29.84,South,180,15.2,23.7,51,0.00,,,0.00,WUHU21636XXSP,2013-11-15 18:19:00,
2013-11-15 12:29:00,57.4,38.3,29.83,SW,225,15.2,25.2,49,0.00,,,0.00,WUHU21636XXSP,2013-11-15 18:29:00,
2013-11-15 12:39:00,57.9,38.3,29.82,SW,225,14.5,23.2,48,0.00,,,0.00,WUHU21636XXSP,2013-11-15 18:39:00,
2013-11-15 12:49:00,58.3,38.7,29.81,SW,225,8.2,25.7,48,0.00,,,0.00,WUHU21636XXSP,2013-11-15 18:49:00,
2013-11-15 12:59:00,59.0,38.7,29.80,SSW,202,5.1,28.8,47,0.00,,,0.00,WUHU21636XXSP,2013-11-15 18:59:00,
2013-11-15 13:09:00,59.7,38.1,29.80,WSW,247,14.3,25.5,45,0.00,,,0.00,WUHU21636XXSP,2013-11-15 19:09:00,
2013-11-15 13:19:00,60.1,37.9,29.79,SW,225,12.5,28.6,44,0.00,,,0.00,WUHU21636XXSP,2013-11-15 19:19:00,
2013-11-15 13:29:00,60.4,37.6,29.79,SW,225,10.5,29.3,43,0.00,,,0.00,WUHU21636XXSP,2013-11-15 19:29:00,
2013-11-15 13:39:00,61.3,39.0,29.78,SSW,202,8.7,21.4,44,0.00,,,0.00,WUHU21636XXSP,2013-11-15 19:39:00,
2013-11-15 13:49:00,61.5,38.1,29.78,South,180,12.9,24.6,42,0.00,,,0.00,WUHU21636XXSP,2013-11-15 19:49:00,
2013-11-15 13:59:00,61.9,38.3,29.77,SW,225,11.6,23.0,42,0.00,,,0.00,WUHU21636XXSP,2013-11-15 19:59:00,
2013-11-15 14:09:00,62.2,39.2,29.77,South,180,12.5,18.3,43,0.00,,,0.00,WUHU21636XXSP,2013-11-15 20:09:00,
2013-11-15 14:19:00,63.0,38.8,29.76,SSW,202,12.5,22.1,41,0.00,,,0.00,WUHU21636XXSP,2013-11-15 20:19:00,
2013-11-15 14:29:00,63.5,38.7,29.75,SW,225,12.7,22.5,40,0.00,,,0.00,WUHU21636XXSP,2013-11-15 20:29:00,
2013-11-15 14:39:00,63.7,38.1,29.75,SW,225,12.9,21.2,39,0.00,,,0.00,WUHU21636XXSP,2013-11-15 20:39:00,
2013-11-15 14:49:00,63.9,37.6,29.74,SW,225,12.7,22.5,38,0.00,,,0.00,WUHU21636XXSP,2013-11-15 20:49:00,
2013-11-15 14:59:00,64.2,37.9,29.74,WSW,247,10.7,19.4,38,0.00,,,0.00,WUHU21636XXSP,2013-11-15 20:59:00,
2013-11-15 15:09:00,64.8,38.3,29.73,WSW,247,9.6,18.1,38,0.00,,,0.00,WUHU21636XXSP,2013-11-15 21:09:00,
2013-11-15 15:19:00,64.9,39.2,29.73,SW,225,6.2,18.7,39,0.00,,,0.00,WUHU21636XXSP,2013-11-15 21:19:00,
2013-11-15 15:29:00,65.3,38.8,29.73,SW,225,4.6,21.0,38,0.00,,,0.00,WUHU21636XXSP,2013-11-15 21:29:00,
2013-11-15 15:39:00,65.5,38.3,29.73,SW,225,7.3,18.3,37,0.00,,,0.00,WUHU21636XXSP,2013-11-15 21:39:00,
2013-11-15 15:50:00,65.8,38.7,29.73,SSW,202,8.5,14.5,37,0.00,,,0.00,WUHU21636XXSP,2013-11-15 21:50:00,
2013-11-15 16:00:00,65.8,39.4,29.73,SSW,202,8.2,16.1,38,0.00,,,0.00,WUHU21636XXSP,2013-11-15 22:00:00,
2013-11-15 16:10:00,65.3,38.8,29.73,SW,225,10.0,17.8,38,0.00,,,0.00,WUHU21636XXSP,2013-11-15 22:10:00,
2013-11-15 16:20:00,64.0,39.2,29.73,SSW,202,5.1,13.6,40,0.00,,,0.00,WUHU21636XXSP,2013-11-15 22:20:00,
2013-11-15 16:30:00,63.3,39.0,29.73,South,180,4.6,8.9,41,0.00,,,0.00,WUHU21636XXSP,2013-11-15 22:30:00,
2013-11-15 16:40:00,62.8,39.2,29.73,SSW,202,2.4,4.6,42,0.00,,,0.00,WUHU21636XXSP,2013-11-15 22:40:00,
2013-11-15 16:50:00,63.0,39.9,29.73,South,180,3.1,3.1,42,0.00,,,0.00,WUHU21636XXSP,2013-11-15 22:50:00,
2013-11-15 17:00:00,62.2,38.7,29.73,SSE,157,3.5,6.9,43,0.00,,,0.00,WUHU21636XXSP,2013-11-15 23:00:00,
2013-11-15 17:10:00,61.3,38.5,29.72,SSE,157,1.7,3.5,43,0.00,,,0.00,WUHU21636XXSP,2013-11-15 23:10:00,
2013-11-15 17:20:00,59.9,37.8,29.72,SSE,157,1.7,5.5,44,0.00,,,0.00,WUHU21636XXSP,2013-11-15 23:20:00,
2013-11-15 17:30:00,59.0,37.6,29.72,SSE,157,0.8,7.8,45,0.00,,,0.00,WUHU21636XXSP,2013-11-15 23:30:00,
2013-11-15 17:40:00,57.9,37.0,29.71,SSE,157,3.3,7.1,46,0.00,,,0.00,WUHU21636XXSP,2013-11-15 23:40:00,
2013-11-15 17:50:00,56.7,37.0,29.71,SE,135,4.4,4.9,48,0.00,,,0.00,WUHU21636XXSP,2013-11-15 23:50:00,
2013-11-15 18:00:00,55.9,36.9,29.71,SE,135,0.0,6.4,49,0.00,,,0.00,WUHU21636XXSP,2013-11-16 00:00:00,
2013-11-15 18:10:00,55.0,36.7,29.71,SE,135,3.5,5.3,50,0.00,,,0.00,WUHU21636XXSP,2013-11-16 00:10:00,
2013-11-15 18:20:00,54.0,36.7,29.71,SE,135,4.0,5.3,52,0.00,,,0.00,WUHU21636XXSP,2013-11-16 00:20:00,
2013-11-15 18:30:00,53.2,36.0,29.71,SE,135,3.5,4.0,53,0.00,,,0.00,WUHU21636XXSP,2013-11-16 00:30:00,
2013-11-15 18:40:00,52.5,36.1,29.71,SE,135,3.8,7.6,54,0.00,,,0.00,WUHU21636XXSP,2013-11-16 00:40:00,
2013-11-15 18:50:00,52.3,36.5,29.71,SE,135,3.3,8.5,54,0.00,,,0.00,WUHU21636XXSP,2013-11-16 00:50:00,
2013-11-15 19:00:00,51.6,36.3,29.71,SE,135,2.9,7.3,56,0.00,,,0.00,WUHU21636XXSP,2013-11-16 01:00:00,
2013-11-15 19:10:00,51.4,36.1,29.71,SE,135,4.0,9.8,56,0.00,,,0.00,WUHU21636XXSP,2013-11-16 01:10:00,
2013-11-15 19:20:00,50.7,36.3,29.71,SE,135,4.9,4.9,58,0.00,,,0.00,WUHU21636XXSP,2013-11-16 01:20:00,
2013-11-15 19:30:00,50.4,36.0,29.71,SE,135,5.5,6.2,58,0.00,,,0.00,WUHU21636XXSP,2013-11-16 01:30:00,
2013-11-15 19:40:00,49.8,36.0,29.70,SE,135,2.0,6.7,59,0.00,,,0.00,WUHU21636XXSP,2013-11-16 01:40:00,
2013-11-15 19:50:00,49.5,36.1,29.70,ESE,112,3.8,5.8,60,0.00,,,0.00,WUHU21636XXSP,2013-11-16 01:50:00,
2013-11-15 20:00:00,48.9,35.6,29.70,ESE,112,3.3,5.3,60,0.00,,,0.00,WUHU21636XXSP,2013-11-16 02:00:00,
2013-11-15 20:10:00,48.6,35.6,29.70,SSE,157,3.1,4.4,61,0.00,,,0.00,WUHU21636XXSP,2013-11-16 02:10:00,
2013-11-15 20:20:00,48.0,35.6,29.70,SSE,157,3.5,8.7,62,0.00,,,0.00,WUHU21636XXSP,2013-11-16 02:20:00,
2013-11-15 20:30:00,47.8,35.4,29.70,SE,135,2.2,3.5,62,0.00,,,0.00,WUHU21636XXSP,2013-11-16 02:30:00,
2013-11-15 20:40:00,47.5,35.1,29.70,SE,135,2.0,2.9,62,0.00,,,0.00,WUHU21636XXSP,2013-11-16 02:40:00,
2013-11-15 20:50:00,47.1,35.1,29.70,SE,135,4.2,4.6,63,0.00,,,0.00,WUHU21636XXSP,2013-11-16 02:50:00,
2013-11-15 21:00:00,46.8,35.1,29.68,SE,135,4.0,6.2,64,0.00,,,0.00,WUHU21636XXSP,2013-11-16 03:00:00,
2013-11-15 21:10:00,46.6,34.9,29.68,SE,135,0.0,5.1,64,0.00,,,0.00,WUHU21636XXSP,2013-11-16 03:10:00,
2013-11-15 21:20:00,46.6,34.9,29.68,SSE,157,0.4,5.5,64,0.00,,,0.00,WUHU21636XXSP,2013-11-16 03:20:00,
2013-11-15 21:30:00,46.2,34.2,29.67,SSE,157,0.0,2.9,63,0.00,,,0.00,WUHU21636XXSP,2013-11-16 03:30:00,
2013-11-15 21:40:00,46.0,34.0,29.67,SSE,157,0.4,1.7,63,0.00,,,0.00,WUHU21636XXSP,2013-11-16 03:40:00,
2013-11-15 21:50:00,45.7,34.5,29.67,SSE,157,4.4,4.4,65,0.00,,,0.00,WUHU21636XXSP,2013-11-16 03:50:00,
2013-11-15 22:00:00,45.3,34.5,29.67,South,180,2.6,5.3,66,0.00,,,0.00,WUHU21636XXSP,2013-11-16 04:00:00,
2013-11-15 22:10:00,45.1,35.1,29.66,SE,135,0.4,9.1,68,0.00,,,0.00,WUHU21636XXSP,2013-11-16 04:10:00,
2013-11-15 22:20:00,45.1,35.1,29.66,SE,135,2.0,8.5,68,0.00,,,0.00,WUHU21636XXSP,2013-11-16 04:20:00,
2013-11-15 22:30:00,44.8,35.1,29.65,SE,135,3.5,6.9,69,0.00,,,0.00,WUHU21636XXSP,2013-11-16 04:30:00,
2013-11-15 22:40:00,44.8,35.6,29.65,SE,135,3.1,10.9,70,0.00,,,0.00,WUHU21636XXSP,2013-11-16 04:40:00,
2013-11-15 22:50:00,44.8,35.6,29.65,SE,135,0.6,6.2,70,0.00,,,0.00,WUHU21636XXSP,2013-11-16 04:50:00,
2013-11-15 23:00:00,44.4,35.4,29.64,SSE,157,5.3,6.4,71,0.00,,,0.00,WUHU21636XXSP,2013-11-16 05:00:00,
2013-11-15 23:10:00,44.2,35.6,29.64,ESE,112,6.9,10.2,72,0.00,,,0.00,WUHU21636XXSP,2013-11-16 05:10:00,
2013-11-15 23:20:00,44.2,35.4,29.63,SE,135,4.0,8.2,71,0.00,,,0.00,WUHU21636XXSP,2013-11-16 05:20:00,
2013-11-15 23:30:00,44.2,35.4,29.63,SE,135,3.5,4.0,71,0.00,,,0.00,WUHU21636XXSP,2013-11-16 05:30:00,
2013-11-15 23:40:00,44.2,35.6,29.63,SSE,157,2.6,5.1,71,0.00,,,0.00,WUHU21636XXSP,2013-11-16 05:40:00,
2013-11-15 23:50:00,44.4,35.4,29.63,SSE,157,0.8,2.9,71,0.00,,,0.00,WUHU21636XXSP,2013-11-16 05:50:00,